Weather in Novoye

Russia / Ivanovo Oblast     57°21′32″N   41°27′41″E
temp.,
°C
wind,
m/s
gust,
m/s
humid.,
%
clouds,
%
prec.,
mm/h
press.,
hPa
HPBL,
m
3 march, wed
wed300:00−6nw6149022 0.0 1006457
03:00−7nw6139242 0.0 1008469
06:00−8nw61294100 0.1 1009407
09:00−8nw61193100 0.1 1010509
12:00−5nw6108999 0.1 1010681
15:00−3wnw699098 0.1 1009745
18:00−2w61293100 0.2 1006551
21:00−2w61394100 0.4 1005660
4 march, thu
thu400:00−2wsw61295100 0.3 1001662
03:00−2wsw71394100 0.8 998745
06:00−1wsw51098100 0.8 994518
09:00−1wnw91484100 1.6 9931032
12:00−3wnw9138687 0.1 9941072
15:00−2wnw8129194 0.3 997994
18:00−3nw4894100 0.6 998299
21:00−9nnw339191 0.8 100031
5 march, fri
fri500:00−11nnw339170 0.0 100124
03:00−13nnw239436 0.0 100320
06:00−14nw22960 0.0 100420
09:00−12wnw239514 0.0 1005109
12:00−7wnw348899 0.0 1005387
15:00−5wnw248799 0.0 1006554
18:00−7wnw119799 0.3 100721
21:00−8nw499399 0.9 1009326
6 march, sat
sat600:00−14nw349520 0.0 101161
03:00−15nw349852 0.0 101365
06:00−17nw349789 0.0 101471
09:00−17nw369354 0.0 1015204
12:00−13wnw459160 0.0 1015403
15:00−11wnw468776 0.0 1014649
18:00−14w339498 0.0 101324
21:00−15w339789 0.1 101325
7 march, sun
sun700:00−16ssw349855 0.0 101136
03:00−15s599674 0.1 1007176
06:00−12ssw7149386 0.1 1002505
09:00−9ssw9149393 0.8 997857
12:00−5ssw91394100 1.0 9931021
15:00−9nw91495100 2.9 991611
18:00−9nw3481100 0.2 99194
21:00−15wsw228162 0.2 99220